GFSSGP_925_spd_021.txt.gz
Wind_Speed
6 6 10 4 5 5 3 3 4 6 3 1 0 2 3 2 3 3 7 14 7 20 22 29 27 25 23 21 19 16 15 14 13 12 10 9 8 8 8 10 10 8 8 6 4 3 2 4 5
6 7 1 2 4 4 4 3 4 4 4 1 1 0 1 2 3 5 7 12 10 21 21 28 28 26 23 21 18 17 16 14 12 11 11 11 9 8 9 10 9 9 6 4 2 1 2 2 3
6 5 3 3 3 3 3 2 2 3 3 2 2 1 1 2 4 10 6 10 13 19 18 25 27 26 24 23 20 18 17 16 15 14 13 12 11 11 11 12 10 8 6 5 3 3 3 2 2
5 5 4 4 2 0 3 2 3 2 3 2 2 4 4 2 4 6 8 10 17 16 17 20 26 24 23 23 23 21 20 18 16 14 13 13 12 9 9 10 9 8 7 5 4 4 4 4 3
2 3 3 2 4 2 4 3 2 1 1 4 4 3 4 3 9 8 8 10 16 17 16 16 25 25 24 24 22 20 20 20 18 16 15 15 14 13 10 10 9 8 5 6 6 6 5 4 2
4 3 4 1 4 1 2 4 1 3 2 1 1 1 2 6 6 8 7 9 14 17 18 17 19 25 25 23 23 21 20 20 19 18 17 15 19 13 11 10 10 9 8 8 8 6 5 4 5
2 3 3 3 4 3 2 1 3 1 6 2 1 1 2 3 6 8 7 7 11 16 18 20 21 23 24 24 23 24 22 21 19 19 18 19 19 15 12 10 10 10 10 10 9 7 6 7 7
3 3 3 3 2 2 4 2 4 2 5 1 2 2 3 5 11 9 7 9 12 15 20 20 20 22 25 26 25 24 23 22 21 20 20 22 19 17 14 11 11 11 11 10 10 8 8 7 7
3 4 2 3 5 2 4 5 4 4 3 2 4 4 6 5 11 8 8 10 13 16 19 22 22 23 24 30 28 26 26 25 23 22 24 24 23 20 18 14 14 13 12 12 11 10 9 8 7
4 3 5 2 0 2 3 2 3 5 8 7 7 6 3 9 9 10 11 14 15 18 21 23 23 24 22 27 33 31 30 29 26 26 26 26 24 22 20 16 15 16 15 14 12 11 11 9 9
4 5 2 6 4 1 3 7 4 5 5 9 9 7 10 7 9 15 16 19 20 20 21 25 26 25 24 25 28 30 30 29 28 26 28 27 25 23 21 19 19 19 18 18 15 15 12 12 10
2 7 4 5 5 4 3 3 7 5 12 9 11 9 6 10 11 11 16 18 19 21 22 25 26 25 27 26 26 27 28 30 31 30 29 29 28 25 23 22 21 21 22 21 19 16 13 11 9
4 3 4 6 9 7 5 7 5 11 16 12 13 11 9 7 10 16 18 18 17 16 19 20 26 28 27 29 29 28 29 29 31 33 31 31 30 29 26 25 23 22 23 23 21 18 17 15 14
2 2 5 7 11 6 7 6 2 10 6 9 8 8 8 9 16 22 30 28 25 18 13 16 19 28 28 29 30 30 27 26 28 30 32 34 34 31 30 29 27 25 24 24 23 22 20 18 17
2 4 8 10 5 7 6 4 7 12 8 10 6 7 8 13 23 20 20 24 24 22 24 8 11 18 29 28 27 29 28 25 24 26 27 28 35 34 34 32 30 27 26 25 24 23 21 20 18
4 1 3 6 4 2 3 6 8 11 7 14 9 7 12 13 19 21 24 25 24 22 21 18 9 8 20 26 25 25 26 24 25 23 24 25 28 31 33 33 30 26 25 26 28 27 24 22 21
2 3 5 7 1 3 3 6 10 10 5 14 9 10 11 12 19 24 28 31 29 25 23 21 17 10 2 16 18 18 19 22 19 22 21 23 24 28 29 31 28 26 27 29 29 28 27 26 23
5 4 4 4 4 2 3 9 8 11 9 7 9 9 11 13 14 21 28 33 33 30 27 25 24 18 14 6 2 5 6 13 17 16 17 21 23 25 27 27 26 28 29 30 30 29 27 26 23
3 3 4 5 9 3 7 5 9 9 9 6 9 9 11 12 14 23 28 32 33 35 33 30 28 25 18 15 10 6 5 3 3 9 14 16 18 21 25 26 27 29 32 33 32 30 28 25 22
6 4 6 5 6 1 8 8 11 11 5 7 13 9 9 8 12 19 24 29 33 32 33 32 30 27 25 21 17 11 9 11 8 2 7 4 9 16 20 27 27 29 31 32 33 33 30 28 28
3 4 5 7 5 4 3 7 7 2 11 13 11 11 10 11 11 12 20 24 29 33 33 33 31 28 26 22 16 15 10 11 14 12 7 7 7 7 16 22 26 26 29 33 34 35 34 31 33
3 4 6 4 2 3 3 5 6 1 8 8 7 8 8 10 11 12 16 22 27 29 29 32 34 34 30 24 21 22 23 18 18 15 10 8 7 9 13 13 21 24 25 30 34 35 36 31 31
8 3 2 3 3 2 5 1 7 9 4 6 8 9 8 8 9 10 15 20 23 24 27 28 30 31 32 32 28 25 23 19 17 17 15 14 11 7 11 14 15 19 23 25 29 33 35 38 33
4 2 3 3 3 1 8 6 5 5 7 6 7 8 9 8 7 12 18 19 21 21 23 25 26 28 28 29 29 29 28 25 24 22 21 19 16 14 9 10 14 15 19 24 26 29 33 38 41
3 4 2 3 1 6 3 2 8 3 5 10 13 10 8 8 7 7 11 16 19 22 23 24 25 27 27 28 27 26 26 26 26 26 24 24 21 20 18 15 13 14 14 18 23 23 30 33 39
6 5 4 5 3 5 6 5 4 8 16 16 11 8 8 7 6 7 11 13 14 15 16 18 21 23 23 23 25 25 24 24 24 24 23 23 23 22 21 18 15 16 14 14 18 23 25 29 33
4 4 3 2 1 2 4 4 5 8 11 11 8 7 7 6 6 6 9 10 10 11 12 15 18 19 20 20 20 21 21 21 21 21 22 22 23 23 23 23 21 18 16 16 16 19 23 26 30
3 5 2 2 1 5 5 4 4 5 9 7 6 7 6 5 5 5 9 10 9 9 9 9 12 15 15 15 15 16 16 16 18 20 22 23 23 23 23 22 23 24 22 19 17 19 22 25 28
1 1 2 4 4 4 2 5 5 7 10 10 9 8 9 8 6 5 7 10 8 7 7 6 6 10 12 12 14 16 16 18 18 21 24 25 24 24 25 25 25 25 24 24 22 20 20 23 28
6 6 6 3 5 3 3 9 3 7 10 9 10 10 8 7 7 6 10 9 8 7 6 6 5 5 7 8 9 14 16 21 22 25 25 27 26 26 27 26 26 27 27 26 24 24 24 24 23

GFSSGP_925_spd_024.txt.gz
Wind_Speed
9 8 6 4 4 5 1 2 0 1 2 2 1 2 1 1 2 3 3 13 5 17 25 29 27 25 22 20 18 16 13 11 10 9 10 9 8 8 8 9 9 7 7 6 5 3 4 5 6
9 6 3 2 5 4 4 4 1 2 3 2 1 1 2 0 2 1 6 15 7 16 22 29 27 26 24 22 20 17 15 13 12 10 9 8 7 8 9 10 8 6 5 4 2 1 3 4 5
7 4 3 4 4 4 4 3 2 1 1 1 1 0 2 2 1 8 4 16 12 21 23 28 29 26 24 22 20 19 17 15 14 12 11 9 8 8 8 11 10 7 4 3 3 2 2 2 2
6 6 4 4 2 3 5 4 4 2 2 2 3 1 3 0 3 6 10 12 13 21 22 25 29 28 26 23 20 18 17 16 14 13 13 13 10 10 10 9 4 5 5 4 4 4 3 3 3
4 3 4 3 3 2 1 3 1 2 1 3 3 2 3 3 5 7 10 12 14 19 19 21 27 28 27 25 22 20 18 16 15 14 13 12 12 11 10 10 9 7 5 5 6 6 5 4 2
4 3 5 1 4 4 3 2 3 2 2 4 3 4 4 2 4 5 8 9 12 15 18 18 23 26 25 25 24 22 21 19 18 18 15 13 15 16 10 10 9 9 7 6 6 6 6 4 3
5 4 3 3 2 1 3 1 3 2 1 1 2 2 3 5 7 7 6 7 12 14 16 17 19 23 25 25 25 24 22 22 22 21 19 16 19 17 13 8 10 9 8 7 7 6 5 4 5
5 4 1 2 3 3 5 6 0 2 3 3 4 2 4 3 8 8 7 8 10 15 18 18 20 22 25 26 25 23 23 22 22 21 20 19 21 19 16 13 10 12 11 10 10 8 7 7 7
3 4 1 2 2 3 4 5 4 3 2 3 4 3 4 5 9 8 8 11 13 16 20 21 21 23 26 26 27 25 24 23 21 20 20 20 23 21 19 16 12 12 14 12 12 9 9 9 9
4 3 5 2 1 2 4 1 3 5 8 4 4 6 4 3 9 12 13 16 17 20 21 24 24 24 24 26 28 28 27 26 26 24 22 22 23 23 22 19 15 15 15 15 13 12 12 11 11
3 4 3 4 3 1 3 5 2 2 6 8 9 7 6 4 11 14 19 20 22 21 21 24 26 25 26 27 28 32 29 28 27 26 25 24 24 24 23 20 16 16 17 17 16 15 14 13 12
2 6 5 4 1 2 2 4 8 4 9 6 8 7 6 9 8 12 13 14 11 13 19 24 27 27 27 26 27 28 34 33 32 31 26 25 26 26 25 22 20 19 19 20 20 18 16 16 15
4 3 3 6 9 4 3 7 5 10 12 8 7 10 10 10 16 16 16 18 18 16 11 10 23 30 28 26 25 25 27 30 29 29 28 28 27 28 27 24 23 21 22 22 22 20 18 17 15
1 3 6 7 9 5 5 2 4 8 1 10 8 10 9 12 16 19 27 24 23 20 20 12 7 23 31 28 26 26 26 24 23 25 29 30 29 28 28 28 26 23 23 23 23 22 21 19 17
1 5 7 6 3 5 6 2 6 11 6 6 8 9 10 13 19 18 19 21 21 20 19 20 8 8 24 29 26 26 24 23 24 24 25 29 30 30 30 28 27 26 24 23 23 22 21 20 19
1 2 3 4 2 2 3 7 6 9 5 8 9 7 8 10 14 18 20 20 20 19 20 20 17 6 6 18 23 22 21 20 19 20 21 22 24 27 30 32 30 29 28 25 24 24 23 22 21
3 3 4 8 2 2 2 6 8 10 4 7 7 7 8 9 17 22 23 23 23 22 22 23 22 17 12 3 9 11 12 13 13 14 16 19 22 24 25 30 31 28 28 27 26 26 25 24 23
5 4 4 5 3 1 5 10 9 12 4 8 7 7 8 10 10 16 23 26 27 27 26 26 27 24 18 16 10 9 3 2 6 8 11 13 16 17 21 25 27 27 27 26 26 27 27 27 24
4 4 5 4 8 3 7 4 11 9 2 8 7 8 9 10 11 17 23 28 30 33 33 32 31 29 25 21 16 16 19 16 11 7 4 4 7 10 14 18 21 24 25 26 27 28 28 26 21
5 4 6 6 6 1 7 8 11 6 4 5 10 8 8 7 8 16 21 28 32 33 35 34 32 29 27 24 20 14 12 18 20 19 17 13 10 6 12 14 17 21 23 25 27 29 27 26 23
5 6 5 8 4 2 2 7 6 4 9 12 10 9 8 7 7 7 17 24 30 33 34 36 35 33 29 25 19 17 15 18 19 21 17 19 14 11 9 11 14 16 20 24 26 28 30 27 25
5 6 6 5 3 4 1 5 6 4 6 7 7 7 6 7 6 9 13 21 27 27 30 32 33 34 33 29 29 29 27 23 21 20 19 17 16 15 14 10 10 13 14 17 22 26 30 30 26
8 3 3 0 2 1 3 2 6 7 4 5 6 7 6 5 6 7 14 19 21 24 27 28 30 31 30 31 31 30 30 26 26 26 24 21 19 19 18 16 14 12 12 14 18 22 27 30 32
3 3 5 4 3 2 6 7 4 3 3 7 6 7 6 5 6 11 14 17 19 20 25 26 27 29 29 29 28 29 28 28 29 30 31 31 29 27 24 22 19 17 15 16 16 16 21 27 30
4 5 3 3 1 6 3 3 6 5 3 13 15 9 7 6 6 6 10 13 17 20 22 24 25 27 27 28 28 27 27 27 28 28 28 29 31 31 30 28 26 23 19 18 18 18 17 19 26
6 8 5 7 4 5 4 5 3 4 6 12 10 9 8 7 5 5 8 11 14 16 18 20 21 22 23 24 24 23 24 24 24 25 25 25 25 26 26 26 25 24 24 22 20 19 19 18 19
4 3 1 4 2 3 4 1 2 3 5 6 8 7 7 7 6 6 8 9 11 12 13 16 16 17 17 17 16 18 19 20 22 23 24 24 23 24 24 25 26 26 24 24 23 21 21 21 22
4 6 2 2 1 5 4 5 5 8 9 7 8 8 8 8 7 6 11 11 10 10 10 11 11 12 12 12 14 15 17 19 20 21 23 24 25 26 27 26 27 27 26 25 26 26 25 23 22
2 3 2 3 5 5 2 6 3 8 12 14 10 9 9 9 8 6 12 12 12 11 9 8 8 8 8 8 10 12 14 18 19 20 21 22 22 23 26 27 28 30 32 30 28 27 28 30 31
1 6 6 4 5 3 3 8 1 7 11 8 9 9 8 5 7 9 15 16 14 12 10 8 6 4 4 5 7 9 11 16 21 23 22 22 25 25 27 30 31 32 34 34 34 36 35 32 31

GFSSGP_925_spd_030.txt.gz
Wind_Speed
8 7 4 4 4 5 1 1 1 3 2 1 1 2 2 2 3 2 4 12 1 15 24 23 21 19 17 14 13 11 9 8 7 7 6 6 6 6 7 9 5 6 7 7 7 6 6 5 5
8 4 3 3 5 4 4 4 1 1 1 1 2 2 4 1 2 5 2 11 1 13 23 24 23 21 18 16 14 12 10 8 6 6 5 5 5 5 6 7 5 4 5 4 5 5 4 4 3
3 4 4 4 4 4 3 3 2 2 2 1 2 2 3 2 2 2 3 8 4 12 19 23 23 21 19 16 16 14 12 9 8 6 5 4 4 4 6 5 2 1 3 4 3 3 3 3 2
2 6 4 5 2 1 1 1 3 2 3 4 1 2 3 2 1 3 2 6 4 8 15 19 22 21 19 17 16 15 13 11 8 7 6 5 5 4 3 1 2 2 3 3 3 3 3 3 4
6 3 4 4 2 3 3 1 2 1 0 2 2 2 3 2 2 2 2 2 3 7 11 14 21 21 19 18 18 16 14 12 10 9 7 9 6 5 6 4 3 2 2 3 3 5 5 5 5
4 3 5 2 2 3 2 3 1 2 2 3 2 2 3 4 1 2 2 0 2 5 10 13 18 21 21 19 18 17 15 14 12 11 10 10 8 6 6 5 7 4 3 5 3 6 5 6 5
6 4 4 3 1 2 2 5 3 1 2 2 1 3 3 6 7 2 2 0 1 4 8 11 14 19 21 22 20 19 17 15 13 12 11 10 9 8 7 6 5 5 4 5 5 7 7 6 4
5 4 3 2 1 1 3 3 2 1 1 5 1 2 4 4 9 1 0 1 2 4 7 10 12 16 19 21 21 19 18 16 14 13 12 12 11 11 10 9 7 5 3 6 5 8 8 7 3
3 4 2 4 6 2 2 4 0 2 0 4 3 2 7 14 9 4 5 4 5 5 7 10 13 14 17 19 20 20 18 17 14 13 14 13 13 13 12 11 9 7 6 7 6 9 8 7 4
5 4 6 3 2 2 2 1 3 4 6 2 4 6 18 15 16 17 17 17 17 14 8 9 13 16 17 18 18 20 19 16 17 16 15 15 15 14 16 13 12 9 7 8 8 9 10 8 6
2 4 3 2 3 1 1 2 2 2 4 2 4 7 14 20 22 21 19 18 18 17 12 8 10 15 19 20 19 19 19 18 16 16 16 16 16 15 15 15 14 11 12 11 11 13 14 11 9
1 3 3 3 1 2 2 3 1 5 3 4 8 8 7 12 14 17 18 20 20 18 17 13 8 12 19 21 21 19 19 19 19 18 16 18 17 17 16 16 15 14 13 13 14 15 16 14 12
2 2 1 3 4 4 3 5 2 6 6 10 12 14 11 12 16 18 18 18 20 21 20 19 14 9 13 20 20 17 14 16 18 19 19 16 16 16 17 15 17 16 15 14 14 16 16 15 14
1 3 6 6 2 3 5 2 2 2 6 10 10 9 8 12 14 17 24 22 22 20 20 19 17 12 6 11 13 13 10 9 9 13 15 17 18 18 19 18 17 17 17 15 15 16 16 16 16
2 4 7 4 2 3 6 1 5 4 7 9 9 8 8 13 19 18 18 19 20 19 19 20 19 15 9 6 4 3 3 4 6 6 7 9 12 15 16 17 17 17 17 17 17 16 16 17 17
3 4 4 2 2 2 3 7 3 6 8 7 7 7 8 10 14 19 18 17 18 20 22 23 23 21 20 16 14 12 9 7 8 8 9 10 8 8 12 14 16 16 16 18 18 17 18 16 17
6 3 4 8 1 2 2 5 3 5 8 7 6 6 7 7 15 20 18 18 19 20 22 24 26 28 28 26 26 24 22 22 21 17 17 15 13 13 11 10 11 13 14 15 18 20 18 16 14
6 4 4 6 1 3 2 7 9 6 7 7 6 6 6 7 9 16 18 19 22 23 24 25 24 26 30 31 31 31 30 27 26 25 23 22 20 18 15 15 16 15 13 12 12 12 13 13 14
4 4 6 3 3 2 6 7 12 4 7 7 7 6 6 6 8 16 21 23 25 28 30 29 28 26 21 22 27 30 31 28 28 28 24 23 21 20 21 21 19 18 18 17 14 12 11 13 14
3 4 6 5 4 5 6 9 2 3 2 5 8 6 6 4 5 13 19 23 25 26 29 31 29 27 27 27 24 22 25 29 27 26 25 22 21 20 20 20 20 20 18 18 18 17 14 10 12
5 7 4 7 1 2 1 7 4 3 4 6 5 5 5 5 5 7 14 18 21 25 28 28 29 28 25 25 23 23 25 26 28 29 27 26 24 23 21 20 20 19 19 19 18 17 15 13 14
5 8 7 4 3 4 2 5 4 3 3 3 5 6 6 6 4 5 9 14 18 20 23 27 27 27 27 27 30 32 33 29 28 29 29 29 29 29 29 28 26 24 23 21 19 16 15 12 11
6 5 5 3 3 1 3 0 6 5 5 6 7 7 6 6 6 6 8 11 14 17 22 25 27 28 27 28 29 32 33 29 26 26 27 28 27 28 29 28 28 28 28 27 26 23 21 16 13
9 6 6 4 3 1 8 7 4 5 5 5 6 7 7 6 5 6 8 9 13 15 18 22 25 26 26 26 27 27 26 24 25 24 25 25 24 25 26 25 25 25 25 25 24 22 23 22 19
4 6 0 3 1 6 1 2 7 5 3 5 14 12 9 7 6 6 8 9 10 13 15 18 21 23 22 23 23 23 23 22 23 22 22 22 23 24 24 23 24 24 23 23 22 22 21 21 20
7 6 5 7 4 4 2 6 5 3 5 7 9 11 9 8 6 6 9 9 10 12 13 15 17 20 19 20 21 20 20 20 20 19 18 19 19 19 19 19 21 21 22 23 23 23 22 21 20
5 4 2 6 2 2 5 4 2 1 1 4 7 10 10 8 8 8 12 12 12 12 11 12 14 16 17 17 17 18 17 17 17 16 16 17 17 18 19 20 22 23 24 25 25 26 27 26 26
4 6 4 2 2 5 4 4 5 5 8 6 8 11 8 8 8 8 15 15 13 11 12 12 12 14 14 13 12 12 13 13 14 14 16 16 16 16 18 21 24 26 29 30 31 31 30 29 30
3 3 3 3 4 5 2 5 6 7 9 13 12 11 11 11 10 7 16 17 16 15 14 14 13 12 11 10 9 7 7 8 10 12 13 14 15 17 19 22 25 27 29 30 31 31 31 32 34
0 6 7 6 6 2 1 11 2 4 11 15 13 11 9 8 8 11 18 19 18 18 17 16 14 12 11 9 6 4 4 5 7 10 14 16 18 20 23 26 29 29 30 30 30 32 31 30 32

GFSSGP_925_spd_033.txt.gz
Wind_Speed
7 5 2 4 4 4 1 1 1 2 1 1 0 2 3 2 3 2 3 9 1 11 23 21 19 17 14 12 12 11 9 8 8 8 8 8 8 8 8 9 7 9 10 9 8 8 7 7 7
5 3 4 2 4 3 2 3 2 1 1 2 1 1 3 1 1 2 2 10 1 13 21 21 19 17 15 13 11 10 8 7 7 6 6 6 6 7 9 7 6 7 6 6 7 7 6 5 5
2 4 3 4 3 3 3 3 1 1 2 1 1 2 2 2 2 3 4 8 3 12 19 20 19 17 15 12 11 9 8 6 5 5 5 4 5 7 6 3 5 7 5 5 7 5 5 5 5
1 5 4 4 3 2 0 2 2 1 2 3 1 3 2 2 1 4 3 7 3 10 15 20 20 18 16 13 11 11 10 8 5 4 3 3 4 5 4 4 4 5 6 6 6 5 5 6 5
5 3 4 4 0 1 3 3 2 1 0 2 2 1 1 4 5 5 5 4 2 6 12 15 18 19 17 15 12 11 11 8 6 5 4 5 3 3 4 3 2 2 3 5 6 5 5 6 6
4 3 4 3 2 2 3 2 1 1 0 0 2 1 2 9 7 6 4 5 3 3 7 10 15 17 16 14 14 13 12 10 7 6 5 7 3 1 2 3 4 3 2 6 4 5 6 6 5
6 4 4 4 3 0 2 3 3 2 1 2 1 2 2 12 15 5 4 7 7 4 3 6 10 15 17 16 15 15 15 12 10 10 8 8 6 3 2 2 3 5 4 5 6 7 7 7 5
4 4 4 2 3 3 1 0 1 2 1 4 0 2 1 9 13 5 6 7 7 5 1 3 7 12 16 18 18 17 16 14 12 10 8 8 7 5 3 4 4 5 4 6 9 9 9 7 4
3 4 3 5 6 3 1 2 1 1 2 3 4 5 5 9 6 5 8 9 7 5 3 3 6 9 11 16 17 17 17 15 13 9 8 8 9 7 9 8 6 6 4 6 9 10 11 11 6
4 3 6 5 4 3 1 1 1 1 4 3 4 7 14 17 18 19 17 16 16 14 8 6 6 10 11 13 14 15 16 15 12 11 11 10 8 8 9 10 9 7 4 8 9 12 13 13 10
1 4 4 3 3 4 3 1 1 3 2 1 2 3 11 16 18 17 14 14 14 14 12 10 7 9 13 12 13 12 13 12 12 12 11 12 12 12 10 10 9 10 8 7 8 12 13 14 12
2 0 3 1 2 4 3 2 2 3 3 6 9 8 7 14 14 14 14 16 16 14 14 10 6 5 10 14 10 10 9 10 10 12 11 10 14 12 12 11 10 10 10 9 8 8 12 14 12
2 0 1 2 4 3 2 4 4 3 7 10 12 13 11 11 11 12 13 14 15 16 15 13 11 5 5 12 13 9 6 7 9 8 9 10 9 11 11 12 11 11 10 11 10 8 10 12 12
2 1 4 4 3 3 4 3 4 4 6 9 10 10 9 12 12 13 18 17 18 16 17 14 13 10 5 8 12 7 5 4 4 3 3 4 5 9 11 12 13 12 11 12 12 12 12 12 13
2 2 7 2 1 3 6 2 4 6 7 8 8 7 8 11 12 13 12 13 16 16 17 16 16 16 18 17 16 13 12 12 11 9 7 4 3 3 5 6 7 9 11 13 13 13 13 13 12
2 4 2 2 0 1 4 5 3 7 7 6 5 5 7 10 11 13 13 13 13 15 19 19 19 21 22 21 20 19 17 17 17 16 15 14 11 9 6 5 5 5 6 7 10 12 12 12 12
5 3 4 6 1 2 3 5 4 5 5 5 4 5 6 7 13 15 13 13 14 15 19 23 24 26 26 25 26 27 26 26 26 23 21 19 17 15 14 14 13 10 8 7 6 7 8 11 13
6 4 5 5 3 2 2 8 5 2 5 5 5 5 6 7 8 11 13 14 16 18 19 22 26 28 30 30 30 30 29 28 26 26 24 21 20 19 18 17 16 15 13 13 12 9 8 7 9
5 4 6 2 3 3 6 6 7 3 5 6 5 5 5 6 6 13 17 18 20 23 24 23 20 20 24 26 29 31 31 28 28 26 22 20 18 18 18 18 18 18 18 17 15 11 10 9 12
4 4 6 5 3 2 5 9 7 1 3 5 8 7 7 5 5 11 16 21 24 24 24 25 26 23 23 25 25 26 29 30 29 27 26 24 23 22 21 20 21 19 17 17 18 17 12 9 14
5 7 5 6 1 2 2 7 4 1 2 4 4 5 4 6 7 5 12 17 21 25 24 25 24 22 25 27 28 30 32 30 30 30 30 29 27 27 26 26 25 25 25 25 23 21 19 13 12
6 8 7 5 4 4 1 4 4 3 3 4 5 6 6 6 4 5 8 13 18 20 23 25 26 26 24 23 26 29 31 31 28 29 28 28 27 28 28 27 27 27 27 28 27 24 23 19 16
6 6 7 4 4 2 3 0 7 3 6 8 7 6 6 6 5 6 7 9 12 16 21 23 25 25 25 25 25 29 33 30 27 26 26 25 25 25 26 25 25 26 26 25 25 24 24 23 19
9 6 6 4 3 2 8 8 4 5 6 4 10 12 11 8 6 9 8 9 11 13 19 21 23 24 23 24 26 27 28 26 25 23 23 23 22 22 23 22 23 23 22 23 22 21 21 20 18
1 6 1 2 1 5 3 3 7 3 2 2 14 12 10 10 9 9 12 13 13 12 14 18 20 23 22 22 23 23 23 23 23 21 20 19 19 20 20 19 20 20 19 19 19 19 19 18 17
8 6 5 7 4 3 2 6 6 2 1 2 7 13 12 10 7 8 14 15 14 13 13 16 18 20 18 18 20 20 19 20 20 18 17 18 17 16 14 15 16 17 18 19 19 20 20 19 19
6 6 4 6 2 3 4 4 3 1 1 2 8 12 15 13 11 10 15 16 16 16 16 16 17 18 17 17 18 18 17 16 16 15 14 14 13 13 14 16 18 19 20 21 22 23 23 22 22
5 7 3 2 2 4 3 4 5 6 8 6 9 14 13 10 9 10 19 20 18 17 17 17 17 18 18 16 15 15 14 13 12 11 11 10 10 10 12 14 17 18 20 22 23 25 25 25 24
4 3 2 4 4 5 2 5 6 9 9 14 13 16 16 15 14 12 18 23 21 19 20 19 19 19 19 17 15 13 12 10 9 8 8 8 8 10 12 15 18 20 22 23 24 24 23 24 26
2 7 7 4 5 2 1 6 1 4 8 11 13 13 11 12 13 15 21 24 23 24 22 22 22 21 19 18 15 12 9 7 5 5 6 8 9 11 14 16 18 20 22 23 23 23 23 23 22